Theta_e
333 332 331 331 330 330 328 328 329 330 330 328 329 327 326 325 325 325 324 325 325 327 329 328 327 328 329 329 330 330 329 330 330 329 328 328 329 336 340 340 340 341 340 340 338 337 334 335 338 337 337 334 332 332 332 331 331 330 330 330 330 329 329 329 328 328 327 328 327 327 327 326 326 326 326 326 326 326 326 326 326 325 325 325 325
332 330 331 330 329 328 329 328 330 328 328 327 326 327 326 325 325 325 325 323 326 329 328 328 328 328 328 329 329 329 329 330 330 329 329 329 329 333 340 340 339 339 341 338 336 335 334 334 337 338 337 334 333 333 332 332 332 332 331 331 330 330 329 328 328 328 327 327 326 326 326 327 327 327 326 326 326 326 326 325 325 325 325 325 325
331 329 329 327 326 328 328 328 327 327 327 328 329 328 326 326 326 325 322 325 326 327 328 327 328 329 328 329 328 329 329 329 329 329 331 328 328 330 336 341 341 341 340 340 337 336 335 334 338 338 336 335 334 334 334 333 332 332 332 332 331 330 329 329 329 328 328 328 327 327 326 326 326 326 326 326 325 326 325 325 325 324 324 324 324
329 327 326 325 325 325 327 327 327 329 326 326 327 327 328 328 328 326 325 324 325 326 327 327 326 328 329 329 329 329 328 329 328 328 329 328 329 329 332 335 341 340 340 341 342 338 336 334 333 337 337 336 336 335 335 334 333 333 333 332 331 331 330 330 329 328 327 327 327 327 327 326 326 325 325 325 324 324 324 324 324 324 324 324 324
328 328 329 325 326 326 326 327 329 330 327 326 328 328 329 328 328 327 326 325 325 326 327 327 326 326 328 329 329 329 329 330 329 329 329 329 328 328 329 331 331 339 340 341 341 341 340 336 335 335 337 337 337 337 336 335 335 335 334 332 332 331 331 330 330 328 327 327 327 327 327 327 326 326 324 324 324 324 324 324 324 324 324 323 323
331 329 328 326 325 326 329 331 331 330 328 327 327 326 327 326 327 326 329 325 324 324 325 325 325 327 327 327 328 328 328 330 329 328 329 329 327 328 328 328 329 331 333 339 341 341 341 340 338 336 336 337 337 337 336 336 337 336 335 334 332 332 332 331 331 330 329 328 327 327 327 327 325 325 324 323 323 324 324 324 324 322 322 323 323
328 328 327 327 326 327 331 332 332 329 327 325 327 324 325 325 325 325 324 324 325 326 325 324 325 326 326 326 326 326 327 329 329 327 328 325 327 327 327 327 327 329 329 329 335 339 338 336 335 337 337 337 337 336 337 337 335 334 334 335 334 333 333 332 332 331 330 329 327 328 327 327 326 325 324 324 324 323 324 323 323 323 323 322 322
328 327 326 326 327 328 331 331 330 326 325 325 325 325 324 325 325 325 324 324 326 324 325 325 325 325 326 326 326 327 326 326 328 327 326 325 326 324 325 326 326 330 334 328 330 336 338 339 338 338 337 335 334 336 336 335 334 335 333 334 330 333 333 334 333 333 332 331 329 328 328 327 327 326 325 324 324 324 323 323 323 323 323 323 322
328 326 326 327 328 328 329 329 328 327 325 323 323 324 325 325 324 325 325 324 325 325 325 325 325 326 326 325 324 325 324 325 325 324 327 324 324 324 325 325 332 336 326 326 328 328 334 336 337 336 336 335 335 335 335 336 335 335 335 335 333 333 334 335 334 333 333 332 331 330 329 328 328 328 327 326 324 324 324 323 323 322 322 322 322
328 328 326 328 328 328 330 329 327 326 324 324 323 322 323 324 323 323 326 326 326 325 325 325 326 327 326 325 324 324 324 324 325 329 323 324 324 324 323 324 327 326 325 326 327 326 326 331 335 335 335 335 336 337 336 336 336 337 336 333 332 334 335 335 335 334 335 334 333 332 330 329 329 329 328 328 326 325 325 324 323 323 322 321 322
330 330 329 329 326 328 329 328 326 325 325 324 324 324 323 322 324 323 326 326 326 326 326 326 326 325 325 325 325 324 324 325 325 324 324 323 326 328 326 324 326 325 326 328 327 326 328 329 330 329 329 332 332 332 333 334 336 336 336 335 333 333 334 334 334 335 334 332 333 332 332 330 329 329 330 329 328 326 326 325 324 324 323 322 322
330 328 329 328 327 327 327 326 326 326 324 323 323 323 323 323 323 324 324 325 326 326 327 326 323 323 324 324 324 325 326 325 324 324 322 323 324 324 323 325 325 328 329 329 328 329 330 330 329 325 323 326 328 328 329 329 330 334 336 336 335 335 335 332 333 333 331 331 331 331 330 330 330 330 330 330 330 329 327 326 325 325 324 324 323
331 328 326 330 327 325 326 325 326 326 324 323 323 323 322 323 324 323 323 323 323 325 326 324 322 319 321 321 321 324 327 325 323 324 324 323 323 322 322 324 325 327 329 330 331 331 329 329 327 325 323 321 321 323 325 325 328 331 333 335 336 336 335 335 334 333 331 332 331 331 330 330 330 331 331 331 331 330 329 328 326 325 325 325 324
331 327 326 326 325 325 325 326 326 325 323 323 324 327 324 324 324 322 320 321 321 324 325 321 318 317 316 315 318 319 321 320 321 323 324 323 322 321 321 324 326 327 329 330 331 330 329 328 326 324 322 319 318 316 317 319 322 328 330 332 335 335 334 334 333 333 332 332 331 330 330 329 330 331 331 332 332 331 331 330 328 326 325 325 325
330 329 327 327 326 325 325 326 326 327 324 324 325 324 324 323 323 323 321 321 323 324 321 317 317 316 317 315 311 311 315 315 317 315 320 319 321 321 323 326 327 327 327 327 327 328 329 328 325 322 319 315 314 313 314 317 322 325 327 329 333 336 335 335 334 334 334 333 333 332 330 329 329 330 331 330 330 330 331 331 330 328 327 326 326
329 329 328 327 326 326 327 327 326 326 324 323 324 324 323 322 322 323 324 322 316 317 322 320 318 319 311 309 310 309 307 310 309 312 315 319 320 320 323 324 324 324 324 325 326 328 328 326 319 317 315 313 312 312 312 313 319 322 325 327 329 334 335 334 334 335 333 332 332 333 331 330 330 330 329 329 328 329 329 330 331 331 330 328 328
327 328 327 325 325 327 327 327 326 325 325 323 323 324 324 323 322 322 323 322 317 313 318 321 321 318 315 310 308 308 305 308 306 308 311 313 316 320 325 322 322 322 323 325 327 327 322 315 313 312 311 310 310 310 310 312 312 317 316 324 326 329 333 334 335 335 333 333 333 333 332 332 332 332 331 331 330 330 330 330 331 330 330 331 330
325 326 326 325 325 325 325 326 325 325 325 324 324 323 323 323 321 322 320 320 322 317 315 318 320 321 317 315 313 309 309 308 305 304 310 311 314 318 319 320 320 320 322 325 324 320 317 314 312 310 309 308 307 307 307 310 316 312 313 318 323 325 323 331 332 333 336 337 336 335 333 333 332 331 331 331 332 331 331 331 330 330 330 329 330
324 323 324 323 322 322 323 324 325 324 326 325 325 325 325 325 323 321 321 321 320 317 318 317 318 320 320 319 320 315 315 309 303 304 305 308 310 312 314 317 319 321 322 322 320 317 315 312 309 309 308 307 306 306 306 307 312 315 318 318 320 321 320 322 332 334 333 333 333 332 331 330 329 328 328 328 329 330 331 331 331 331 330 329 329
322 321 322 324 322 321 322 322 324 324 326 324 325 324 326 325 323 322 322 322 321 320 317 317 320 318 319 317 317 316 313 310 310 309 306 307 307 310 310 312 315 316 318 318 315 311 309 308 307 306 305 306 305 305 305 305 305 307 311 317 318 318 318 317 316 322 327 326 326 327 327 326 326 324 324 324 324 325 326 327 329 329 330 330 330
320 320 321 322 324 322 320 321 323 325 327 325 323 325 325 323 322 321 321 319 319 319 319 318 318 318 318 315 315 313 312 312 310 309 306 305 304 306 306 309 313 312 314 312 310 310 309 308 310 307 309 305 304 304 305 304 304 305 312 313 315 315 316 315 313 312 316 324 324 325 324 324 323 323 322 321 321 321 322 323 324 325 326 327 327
317 318 318 320 321 321 321 321 321 324 325 324 324 322 321 323 323 322 320 320 318 320 320 319 319 318 319 318 314 311 311 309 307 308 308 306 307 305 306 309 309 308 310 309 308 307 306 305 303 303 302 303 303 303 304 304 304 306 310 313 314 313 312 312 311 311 316 320 322 322 322 322 321 320 318 318 318 318 317 317 319 320 322 324 325
316 315 315 316 316 318 318 318 319 325 323 322 323 324 323 323 321 320 320 320 318 318 317 317 318 318 317 319 316 314 311 309 308 308 306 304 305 304 304 305 307 307 305 307 306 304 304 302 302 301 302 301 301 303 303 304 311 311 312 313 312 312 311 307 306 307 314 318 320 320 317 318 318 318 317 315 315 315 315 315 316 316 317 319 320
314 315 315 316 316 316 317 317 321 319 319 320 321 323 323 322 321 321 320 319 318 319 317 317 317 319 317 317 317 315 312 311 310 309 309 308 309 304 304 304 304 303 306 305 305 304 303 302 302 301 301 302 302 304 305 303 307 312 309 312 311 311 310 309 305 304 305 309 314 317 318 318 316 316 316 315 314 314 314 314 314 314 315 316 317
314 315 315 315 316 317 316 318 318 317 318 319 318 320 321 321 321 321 320 320 320 318 317 318 319 319 319 315 316 315 314 313 311 309 309 309 308 304 302 302 300 301 304 303 303 303 304 303 303 301 301 302 304 302 303 302 303 310 309 308 310 309 308 310 310 306 303 304 308 313 316 315 316 315 314 312 312 311 311 311 309 308 308 309 311
314 314 314 315 314 315 315 315 316 317 318 318 319 318 319 321 320 320 320 320 317 317 316 315 316 315 317 316 315 314 312 314 311 309 309 308 305 306 301 298 302 303 298 300 302 302 304 304 305 304 303 301 300 301 301 302 302 312 309 304 305 307 307 306 308 310 306 306 307 309 312 313 313 313 312 311 309 309 309 307 307 306 306 307 307
315 314 316 314 314 314 314 315 316 317 318 318 320 318 318 319 318 317 315 314 315 315 314 316 317 315 314 316 316 314 314 313 309 309 310 310 308 305 303 301 296 298 297 295 296 299 301 302 304 305 303 304 301 300 301 301 308 310 309 298 300 307 305 306 307 308 308 305 304 304 305 306 308 309 308 308 307 308 307 307 307 305 306 307 308
314 314 315 314 313 312 312 313 314 316 316 316 316 317 317 317 314 312 311 313 312 311 310 314 314 314 313 310 314 313 311 313 311 309 309 309 309 306 305 304 300 295 294 298 296 297 301 302 303 303 303 303 303 302 306 306 302 311 309 299 298 300 306 305 306 307 306 304 302 301 301 302 303 304 305 306 308 308 307 306 307 306 306 307 308
315 314 312 310 310 310 311 312 313 313 314 314 314 313 313 313 311 309 308 307 309 307 307 309 308 308 307 308 311 309 308 311 313 309 309 308 308 305 306 305 303 298 293 294 295 295 301 299 301 303 304 303 303 302 303 302 304 308 301 299 298 297 304 306 304 304 304 303 302 302 300 301 302 304 307 309 308 307 306 305 304 304 305 307 307
314 314 311 311 312 314 310 310 310 311 312 312 312 311 310 309 308 308 307 308 308 308 308 307 307 307 307 306 306 306 307 310 313 309 308 307 305 304 302 301 303 301 296 296 296 295 300 300 298 302 303 304 303 303 302 301 307 307 301 299 298 297 305 305 303 301 301 301 302 300 300 300 301 304 307 305 304 303 303 303 302 303 305 306 306
314 310 309 308 308 308 309 308 309 309 309 309 309 309 308 308 308 308 307 307 308 307 306 307 307 307 306 306 305 305 306 309 310 309 308 307 305 303 302 301 301 301 300 298 295 297 299 302 300 298 303 303 305 303 304 302 304 307 301 299 298 302 306 304 303 302 302 302 301 300 302 302 301 301 303 305 306 306 305 305 303 305 306 305 304
309 309 308 307 307 307 307 308 307 307 307 307 308 308 308 308 308 309 306 307 308 307 306 306 308 306 306 306 304 305 306 307 308 308 306 306 305 303 303 302 298 298 299 298 297 299 299 300 300 298 302 303 304 303 303 304 305 310 303 300 299 306 302 300 302 303 302 301 301 300 302 305 304 302 302 303 304 304 303 302 302 305 304 302 302
307 308 307 306 306 307 307 308 306 306 306 306 307 306 307 306 306 307 306 307 308 305 307 306 307 307 308 307 305 305 305 307 306 307 307 306 306 306 304 301 300 300 300 297 296 297 300 298 297 299 301 304 303 304 303 302 302 303 307 301 300 299 298 298 297 302 302 301 301 301 301 301 300 301 300 299 299 299 301 301 301 303 301 301 301
307 307 306 307 306 306 306 305 305 305 305 305 305 306 307 306 305 308 307 307 306 304 305 305 304 307 304 305 305 304 304 305 306 307 307 306 306 305 303 302 301 301 300 297 296 297 299 300 299 299 299 302 303 301 304 302 300 301 304 303 300 299 297 296 295 296 300 302 301 301 301 301 300 301 300 300 300 300 301 300 299 300 300 299 297
308 307 306 305 305 305 305 305 305 304 305 305 305 305 305 306 306 305 306 305 306 305 305 304 304 304 304 305 304 304 305 304 303 303 304 305 305 305 304 303 302 301 301 300 298 297 298 298 298 298 298 299 302 301 300 301 299 298 299 302 303 301 300 296 295 295 298 300 300 300 300 300 300 300 300 300 300 300 301 300 300 300 299 298 297
307 306 306 305 305 304 305 304 304 304 305 305 304 304 305 305 305 305 304 304 304 304 305 304 303 303 303 303 303 303 304 304 302 303 303 304 304 304 303 302 302 302 303 301 301 298 297 299 298 299 299 298 299 298 298 299 299 299 297 297 300 300 298 299 296 295 297 299 300 300 301 301 301 301 301 300 301 301 301 300 300 300 300 298 298
306 306 307 305 304 304 305 304 305 305 305 304 304 304 304 304 305 305 304 304 304 304 304 304 308 303 303 303 303 303 304 304 302 304 305 304 305 305 304 304 303 304 304 303 301 299 299 298 299 299 298 298 299 299 298 299 300 301 301 298 299 299 298 298 299 299 301 301 300 300 300 300 300 301 301 301 301 301 300 300 300 300 300 300 299
306 307 306 305 306 304 304 304 305 305 304 304 304 304 304 304 304 304 304 304 304 304 304 304 305 303 303 303 303 303 304 305 303 303 303 304 304 304 303 303 303 303 303 301 301 300 300 299 299 299 298 300 299 300 299 299 301 301 301 301 301 300 299 299 301 303 301 300 300 300 302 300 301 301 301 301 300 300 299 299 299 299 299 299 299
307 307 305 305 306 305 304 304 305 306 305 304 304 304 305 304 304 304 304 304 304 304 304 305 305 304 303 304 303 303 304 304 305 304 304 303 305 303 304 304 304 304 303 302 301 300 299 298 297 298 298 299 299 300 301 299 301 300 301 299 299 299 298 299 300 301 301 300 300 300 299 299 301 301 301 300 300 300 299 300 299 299 298 297 297
308 307 306 306 306 305 304 304 306 307 305 305 304 305 305 305 304 304 304 304 304 304 304 304 304 304 303 304 304 304 304 305 306 305 305 306 303 303 303 304 304 304 303 302 301 300 299 299 299 299 297 297 300 299 301 299 300 299 300 297 299 297 297 297 297 298 298 298 297 297 299 299 299 300 299 300 300 299 299 299 300 299 298 297 296
310 309 307 307 306 305 304 305 306 307 307 306 307 306 306 305 305 304 304 305 305 304 304 304 304 304 304 303 303 303 307 312 308 308 307 308 307 305 303 302 303 304 303 302 303 300 300 300 299 298 298 298 297 299 297 297 297 299 299 295 296 295 296 298 298 298 298 296 296 295 297 298 297 297 296 296 299 298 297 299 298 299 298 297 297
310 308 306 306 306 306 305 305 305 306 307 307 309 307 307 307 305 306 306 305 305 305 305 304 304 304 305 304 307 313 312 311 307 303 302 304 308 309 307 304 304 303 303 302 301 302 301 300 300 300 299 299 298 299 299 297 295 296 297 297 298 293 294 294 296 296 298 295 295 294 295 297 296 296 295 295 296 296 296 295 296 296 297 296 297
309 309 307 307 305 305 305 305 305 307 308 309 305 300 301 304 307 306 306 305 304 305 305 304 305 306 306 306 305 309 312 313 308 301 300 300 300 302 304 305 307 306 303 302 302 301 302 302 300 298 300 300 298 296 296 297 295 297 297 296 296 294 293 292 293 295 295 295 292 291 294 295 294 294 293 294 295 295 294 296 297 297 296 296 297
310 309 310 308 307 306 305 304 303 305 306 306 302 300 298 299 304 309 307 307 306 306 306 306 307 305 307 308 306 306 307 307 307 304 302 300 299 299 300 299 300 302 303 305 303 300 299 300 299 300 299 300 298 297 295 295 295 294 293 294 291 294 292 291 289 292 294 295 291 290 292 292 292 293 292 293 294 293 295 297 297 296 296 296 296
310 311 308 308 307 306 305 305 304 303 303 302 298 298 298 297 297 303 307 307 308 307 307 308 308 308 308 308 308 309 310 313 312 304 302 300 297 296 298 299 297 296 297 297 300 304 303 303 302 301 300 298 297 298 298 298 296 297 293 292 290 290 289 289 289 288 292 292 289 289 289 290 290 289 290 292 292 292 293 296 296 296 296 296 296
308 308 308 307 307 308 306 307 308 306 307 301 295 296 296 296 295 297 305 307 308 308 308 309 310 309 309 309 309 309 307 306 307 304 303 299 297 298 298 297 297 298 296 296 295 297 302 305 303 303 303 300 302 299 300 297 298 296 295 293 292 292 291 291 289 290 292 293 291 287 287 288 288 287 288 290 291 292 292 294 295 296 296 295 295
301 302 303 303 305 305 306 305 306 307 307 299 293 292 295 296 296 296 301 304 307 307 309 309 309 310 310 310 310 310 309 308 308 307 303 300 299 298 298 299 298 296 295 295 295 296 299 302 305 306 306 303 301 300 300 298 299 297 296 295 294 293 293 291 290 289 290 292 289 289 288 286 284 287 287 289 290 289 289 293 295 295 295 295 294
298 298 299 300 301 302 304 304 302 305 307 301 296 293 293 294 296 300 302 303 305 307 307 308 309 310 310 309 309 309 309 309 305 301 301 303 303 303 301 299 296 295 294 294 292 292 295 298 302 305 304 302 300 301 300 297 296 294 294 294 293 293 293 291 289 287 289 290 289 285 286 286 285 287 286 287 287 287 288 287 292 295 295 295 294
295 296 297 297 299 299 301 302 303 304 306 302 298 296 294 294 297 301 302 303 303 306 307 308 309 309 309 309 309 308 308 307 302 296 297 299 304 304 303 302 298 296 296 295 292 292 292 293 294 295 295 294 294 294 294 294 295 295 295 294 292 291 290 288 289 285 287 286 288 287 285 285 285 284 287 286 286 287 286 288 288 293 295 294 294
294 294 295 295 296 297 297 299 300 302 303 302 299 298 297 295 297 304 306 304 305 306 307 308 307 308 309 309 311 309 307 306 300 295 295 300 304 304 303 300 297 295 293 292 294 293 292 292 291 291 291 291 292 292 292 293 293 295 295 292 290 289 289 288 286 285 284 285 287 289 285 285 283 283 285 284 284 283 285 286 288 292 293 292 293
293 293 296 294 294 294 296 297 302 300 299 300 298 296 296 296 298 302 304 303 303 305 306 307 306 306 307 307 307 307 305 302 298 296 296 300 307 306 304 301 299 298 296 292 293 292 292 293 291 292 292 293 294 293 294 293 293 295 292 292 291 292 290 288 287 284 285 285 286 289 286 283 283 284 284 284 281 283 282 286 289 289 289 290 290
Wind_Speed
4 4 4 3 2 2 2 2 2 2 3 4 4 4 3 3 3 2 3 4 5 5 5 4 4 5 7 6 5 5 4 4 4 3 3 2 2 2 4 4 4 8 8 8 8 7 5 6 7 7 7 7 6 6 6 6 6 6 6 6 6 7 7 7 7 6 7 7 7 7 7 6 6 7 7 7 7 8 8 8 8 7 9 9 9
4 3 4 3 3 2 2 2 3 2 4 4 3 4 4 3 3 2 3 3 5 4 5 5 5 5 5 6 5 4 4 5 4 4 3 3 2 1 5 5 4 4 7 6 6 6 4 5 6 6 7 7 6 6 5 5 5 5 6 6 6 6 6 6 6 6 6 6 6 5 6 6 6 6 7 7 7 7 8 7 7 8 8 8 8
4 4 2 3 3 4 3 2 2 1 3 3 2 3 3 4 3 2 2 4 4 4 6 6 5 5 4 5 5 4 4 3 3 3 3 2 2 3 4 6 5 5 4 4 7 4 3 5 7 6 7 6 6 5 5 4 4 4 4 5 5 4 5 5 5 5 5 5 5 5 5 5 6 6 5 5 6 7 7 7 7 6 7 8 8
3 3 3 3 2 3 3 3 2 1 2 2 3 3 3 3 3 2 2 3 4 4 4 6 6 5 4 4 4 5 4 4 3 3 2 2 4 4 4 4 6 7 8 8 7 4 5 4 5 7 6 6 5 5 4 4 3 3 3 4 4 3 3 3 5 5 5 4 4 4 4 4 5 5 5 5 5 5 6 6 6 6 7 7 8
3 3 3 2 2 2 2 2 2 2 2 3 3 3 3 3 3 2 4 4 5 5 5 5 6 5 5 4 4 4 4 4 4 2 2 4 4 3 3 3 3 6 8 8 8 7 3 3 5 5 5 5 5 5 5 5 5 4 4 4 4 3 3 2 4 4 4 4 4 4 4 4 4 4 4 3 4 5 5 4 5 6 6 7 7
4 3 3 3 2 2 2 2 2 2 2 3 3 2 3 4 4 4 4 4 4 4 6 6 5 5 5 3 4 4 4 5 3 2 3 3 2 3 4 4 4 4 4 7 9 8 9 7 4 4 3 5 4 5 5 5 4 3 3 5 4 4 3 2 2 4 3 4 4 3 4 4 3 3 3 3 3 4 4 5 5 4 4 5 6
3 4 3 3 4 2 2 2 2 2 3 2 4 2 3 4 4 5 4 4 4 4 4 5 5 6 5 4 5 4 3 4 3 2 3 2 3 3 3 3 3 4 4 4 6 8 10 8 7 8 11 11 9 5 7 6 6 4 5 4 2 4 4 5 5 4 4 4 4 4 4 4 3 3 2 2 2 2 3 3 4 5 4 4 4
3 3 4 3 4 4 2 4 3 2 2 3 3 4 3 4 3 4 6 4 5 5 4 5 5 5 3 3 3 3 2 4 4 3 2 2 2 2 3 3 3 4 4 3 3 6 11 11 11 11 10 7 3 5 9 10 8 8 6 5 4 3 5 6 6 6 5 6 6 6 5 4 5 3 3 3 2 2 2 2 2 2 4 4 4
3 2 3 3 3 3 2 3 3 3 3 2 3 2 4 5 3 2 3 5 5 6 5 5 5 4 2 3 3 3 3 2 3 3 3 2 2 2 2 2 1 5 3 3 3 4 8 11 11 12 11 7 5 6 6 8 7 4 1 3 4 3 7 7 5 6 5 7 8 8 6 6 6 6 6 4 4 3 3 1 1 2 1 2 3
3 3 3 2 2 3 3 3 3 3 3 3 3 2 3 4 5 3 4 5 5 6 6 5 5 4 3 4 3 3 2 2 2 2 2 2 1 1 1 1 2 3 3 4 3 4 5 8 13 14 13 11 12 13 13 10 7 6 4 4 6 3 4 6 8 7 8 8 7 7 6 6 6 6 6 6 5 4 3 3 2 3 2 1 2
3 3 4 4 3 3 4 3 3 3 4 4 4 3 3 3 5 5 5 5 5 5 6 6 6 4 3 2 2 2 2 2 2 3 3 1 0 0 3 3 3 3 3 3 3 4 5 5 5 5 7 13 12 13 13 12 10 7 5 1 7 5 5 4 4 8 7 6 5 4 3 1 5 7 6 7 6 5 5 5 5 4 5 4 3
4 3 4 4 4 3 4 3 3 3 3 4 4 4 5 6 5 6 6 6 5 5 6 8 8 6 6 5 4 3 4 4 3 2 2 1 1 3 3 3 3 3 4 4 5 4 5 6 5 4 5 8 12 12 12 11 10 10 9 6 4 5 2 4 6 4 4 5 5 6 6 7 12 10 8 8 8 6 6 6 6 6 5 6 5
3 4 4 3 3 3 4 3 3 3 3 3 3 4 3 4 5 4 6 7 3 3 4 6 11 7 5 4 5 4 3 2 1 3 2 1 3 3 3 3 3 4 4 4 4 5 4 6 5 4 4 4 6 9 11 11 12 12 11 10 8 6 4 6 5 4 1 2 2 4 4 4 8 9 8 7 8 9 8 7 7 6 4 6 6
3 3 3 4 4 3 4 4 4 4 2 3 4 4 4 4 5 5 2 5 3 2 3 3 3 6 7 3 5 5 3 4 4 4 3 3 3 4 4 4 4 4 4 4 4 5 4 5 5 4 4 5 5 5 5 6 8 13 12 12 12 11 9 7 7 5 1 3 2 1 3 2 1 6 7 7 9 9 10 9 8 6 5 5 6
4 4 4 3 4 4 4 4 4 4 4 4 4 5 5 5 5 7 5 2 3 1 1 1 4 4 5 6 2 3 4 3 3 5 3 3 4 4 4 5 5 4 4 5 4 3 4 5 5 5 5 5 5 4 5 5 8 12 13 14 14 12 9 9 9 8 5 4 4 4 0 1 1 1 4 4 8 5 7 7 7 7 7 6 6
4 4 4 4 5 5 4 4 4 3 5 5 4 5 4 4 4 4 6 6 2 1 2 1 4 8 3 2 2 4 3 1 2 3 3 3 4 3 4 5 5 5 4 5 4 5 5 5 6 5 5 4 4 4 5 5 8 10 13 13 13 11 9 11 11 11 11 9 9 9 5 7 9 6 2 3 5 6 6 6 5 7 9 7 8
4 4 4 5 5 5 5 5 4 4 4 4 5 5 4 4 4 5 5 7 4 2 2 3 3 0 7 5 3 1 2 2 2 3 4 3 3 3 5 5 5 5 4 5 4 5 5 5 4 4 4 4 4 4 5 5 6 6 7 11 11 11 10 13 12 13 13 12 13 13 13 13 12 11 8 5 5 4 2 4 6 6 8 7 9
3 3 3 4 5 5 4 5 5 5 5 5 4 4 4 4 4 4 4 1 6 5 2 2 3 4 2 2 4 5 6 3 3 1 2 3 3 4 5 5 4 5 4 4 5 5 3 4 3 4 4 4 4 5 5 5 5 5 5 7 11 12 11 11 13 12 15 15 16 16 16 16 16 16 16 15 14 12 11 7 5 6 5 6 10
2 2 3 3 3 3 3 4 4 4 4 5 5 5 5 4 4 4 4 4 4 5 6 3 2 3 3 2 2 1 7 7 3 3 3 2 4 5 5 5 5 4 5 4 4 4 3 3 4 4 4 4 5 4 5 5 6 7 9 9 10 10 12 13 15 18 17 17 16 16 16 15 15 15 15 14 15 16 17 16 14 11 9 5 2
1 2 3 3 3 2 2 3 3 3 4 4 4 4 4 3 3 3 4 5 6 7 5 5 6 2 2 3 4 4 3 4 4 7 6 6 2 4 4 5 6 4 3 3 3 3 3 3 4 4 4 4 3 4 5 4 4 4 5 9 10 11 13 13 13 13 16 16 16 15 15 15 15 15 14 15 15 16 15 15 15 15 16 16 15
0 1 1 2 3 3 3 3 3 3 4 4 3 3 5 5 4 4 4 4 4 4 6 6 4 5 4 3 5 4 5 4 4 4 5 5 1 2 3 3 5 4 4 3 3 3 3 3 3 3 3 3 3 4 4 5 5 4 6 9 9 10 12 13 13 14 13 15 16 16 15 16 16 16 16 16 16 17 17 16 16 15 15 15 15
1 1 1 1 2 2 3 4 3 4 3 5 4 4 3 4 5 5 3 4 2 5 5 5 4 4 3 5 4 3 5 3 3 5 5 3 7 5 4 7 5 2 3 4 3 3 3 4 4 3 3 3 3 3 3 4 4 4 6 9 9 10 10 12 12 13 13 13 16 16 16 16 16 17 16 17 17 17 17 17 16 17 16 16 16
2 1 2 2 3 3 3 3 3 3 4 5 6 6 5 5 4 3 4 5 4 3 3 3 4 4 3 6 7 8 8 6 6 4 5 3 5 4 3 2 4 5 3 3 3 3 4 4 3 2 2 2 2 3 4 4 4 5 8 9 9 10 10 10 10 10 10 10 11 13 14 15 15 15 15 16 16 16 16 16 17 17 17 17 17
2 2 2 1 2 3 3 3 3 4 4 4 4 5 5 5 5 5 4 3 3 4 4 4 4 4 4 4 5 4 4 6 6 6 7 6 8 7 6 3 4 3 1 2 3 4 3 2 2 1 1 1 2 2 2 3 3 7 5 8 8 8 7 8 9 9 9 10 10 11 13 14 14 15 15 15 16 15 15 16 16 15 16 16 16
3 3 1 1 2 4 3 4 3 2 3 3 3 3 4 5 5 5 4 5 6 6 6 6 6 6 6 2 4 3 3 4 6 5 4 6 8 8 2 2 4 3 0 1 1 2 2 2 1 1 1 1 0 1 1 2 2 5 6 5 7 6 6 6 7 8 9 9 9 10 11 12 13 14 13 14 14 15 14 14 13 12 12 14 15
4 3 2 1 2 2 3 3 2 3 3 3 3 3 4 5 5 5 5 4 4 5 4 4 4 3 4 5 3 3 3 5 6 6 7 7 6 9 5 4 3 4 0 1 0 2 1 1 0 0 1 1 1 0 0 0 1 4 5 3 4 5 5 6 6 6 7 7 8 8 9 9 11 12 12 12 11 11 11 10 10 11 11 11 12
5 2 1 3 2 3 3 3 3 3 3 3 4 3 3 3 3 3 2 3 3 4 4 5 5 4 4 5 5 3 4 5 6 6 7 8 9 8 9 9 3 2 1 1 0 1 2 0 1 0 1 1 2 2 1 0 0 2 4 2 2 4 4 5 5 5 5 5 6 6 7 7 8 8 8 8 8 8 9 9 9 10 10 11 12
3 3 1 2 3 3 3 3 3 3 2 3 3 3 3 5 3 3 3 2 5 4 4 4 5 5 4 3 4 4 4 5 5 7 7 7 8 7 8 9 10 4 1 1 0 1 1 1 1 2 3 3 3 2 2 1 0 1 3 1 1 2 4 4 4 4 4 4 4 5 5 6 6 6 6 7 6 6 6 7 6 6 8 8 9
3 2 3 2 3 3 3 3 3 3 3 3 3 3 3 3 4 3 3 2 3 4 4 5 4 4 4 5 6 6 6 4 4 5 6 5 6 7 8 11 8 9 4 3 3 2 2 2 2 3 4 3 3 2 2 3 2 0 0 0 0 1 2 4 4 4 3 3 3 3 3 4 4 4 5 4 5 4 4 4 5 6 6 5 7
3 2 3 4 3 3 4 3 2 3 3 3 3 3 4 5 4 3 2 3 5 3 2 4 4 4 3 3 2 4 4 6 6 6 6 7 6 6 4 4 8 10 6 7 6 3 3 2 2 2 3 4 4 3 3 3 3 2 1 0 1 2 3 2 2 2 3 3 3 3 3 3 3 4 3 3 3 3 2 2 2 3 3 4 4
4 4 4 4 4 3 4 3 3 3 3 3 3 3 4 5 3 4 3 4 6 5 3 3 3 4 4 3 2 3 4 5 5 5 5 7 6 6 4 5 1 4 9 5 5 4 3 6 5 3 4 5 4 3 3 3 3 2 1 0 1 3 4 3 2 1 3 4 4 4 4 3 3 4 4 3 2 1 2 2 1 2 2 2 2
3 3 4 4 4 4 3 4 3 3 3 2 3 4 4 4 4 5 3 4 6 5 4 3 3 3 4 5 3 4 5 6 5 5 6 4 6 6 6 6 3 3 4 6 6 7 4 5 5 4 4 4 3 4 4 2 2 4 2 2 2 3 3 3 4 3 2 4 5 5 4 5 5 5 5 5 4 4 3 3 3 3 2 1 2
3 4 3 3 3 4 4 3 4 4 4 3 2 3 4 4 3 4 4 4 6 4 5 4 2 3 4 5 4 4 4 6 6 6 5 5 4 5 5 6 5 4 6 4 5 3 1 2 3 5 2 4 3 4 4 3 1 1 4 3 3 3 3 4 4 4 4 3 5 5 5 6 6 6 6 7 6 5 5 5 5 5 4 4 3
2 4 3 2 3 4 4 3 3 3 3 3 2 3 4 4 3 3 4 4 4 4 4 4 4 3 4 6 4 4 4 6 6 6 6 6 6 6 5 7 6 6 4 4 3 4 6 1 3 1 1 2 4 2 6 5 2 2 4 3 3 3 3 3 4 4 4 3 4 5 5 6 7 7 8 8 7 6 6 7 7 8 7 6 5
1 1 3 3 3 3 3 3 3 2 3 3 1 3 3 4 4 3 3 4 4 4 4 4 4 4 4 5 4 4 3 5 4 4 4 5 5 7 8 6 7 7 5 4 5 3 6 5 2 4 3 3 6 6 4 2 2 4 3 4 5 3 3 3 3 3 3 3 3 3 5 6 7 8 8 8 8 7 6 6 7 9 9 8 7
3 1 1 2 3 3 3 2 1 2 2 2 2 2 4 4 4 4 2 3 3 4 4 4 4 4 5 5 4 4 4 5 4 4 3 4 5 5 6 5 6 8 6 4 5 6 4 6 4 6 4 5 6 2 0 2 2 3 3 2 2 3 3 1 1 2 3 3 1 2 4 6 8 8 7 7 7 6 6 6 6 7 8 7 6
2 2 1 1 2 2 3 3 2 2 3 2 2 2 1 2 4 4 3 2 2 2 3 4 4 4 4 5 4 4 5 6 4 5 5 5 5 6 6 5 6 6 4 4 4 4 6 7 5 3 2 4 2 2 3 4 1 0 0 1 1 2 1 0 0 2 2 1 4 3 3 5 6 5 5 3 7 8 10 11 10 10 8 7 4
2 2 2 1 1 2 2 2 2 3 2 3 3 4 3 2 2 3 3 2 2 3 3 3 4 3 4 4 4 4 5 6 5 3 3 5 4 4 5 4 4 3 4 3 3 4 6 7 6 4 2 4 3 1 4 5 6 3 2 3 3 2 2 3 4 3 1 2 3 2 3 4 6 1 6 11 12 12 12 12 12 12 12 10 9
4 3 3 3 2 2 2 2 3 3 3 3 3 3 3 3 3 3 2 2 2 2 3 4 4 3 3 4 4 3 4 4 5 5 4 4 4 4 5 5 4 5 4 4 4 4 5 5 3 3 4 2 2 3 0 2 3 4 5 3 2 2 4 4 4 3 3 3 2 1 2 1 3 6 9 11 12 12 11 12 12 12 12 12 11
3 3 4 5 4 3 3 4 3 1 2 2 1 1 2 3 3 3 3 3 3 3 3 3 3 3 4 4 4 4 4 5 6 5 5 5 3 4 2 4 5 5 5 4 4 5 5 5 6 6 3 3 0 1 1 3 2 1 1 3 7 3 3 2 1 3 1 1 1 2 3 4 6 6 8 9 11 11 10 9 12 12 13 13 13
1 2 3 3 3 3 2 3 2 2 3 3 3 3 2 1 2 4 4 4 4 4 3 3 3 2 3 3 3 4 4 6 7 7 8 7 6 5 3 3 4 5 4 4 5 5 5 5 5 1 3 3 3 5 3 3 6 8 4 2 3 2 4 6 2 1 0 0 1 3 4 3 3 5 4 6 6 7 8 8 7 11 12 12 12
2 1 3 3 3 2 4 4 2 2 3 3 4 7 6 4 4 3 3 2 3 3 3 3 4 3 4 3 3 4 6 7 8 8 8 8 7 7 8 6 6 5 5 6 6 6 6 6 7 6 5 6 6 5 5 4 2 3 5 4 6 2 3 3 0 0 2 1 1 3 2 3 2 4 4 6 4 4 4 5 5 6 9 11 11
1 1 2 3 2 3 3 4 5 4 4 4 8 8 9 9 5 4 4 4 3 3 3 4 5 5 4 4 4 4 4 4 4 7 7 8 8 7 9 10 9 9 7 6 6 5 6 6 4 4 6 7 6 4 4 4 2 5 5 5 7 5 5 5 3 1 1 2 1 2 4 4 2 5 3 5 4 3 3 3 5 9 9 9 9
4 3 5 3 2 1 2 1 3 4 4 6 6 7 8 9 8 6 5 5 5 4 4 4 5 4 5 5 4 3 3 4 3 3 5 7 8 8 7 9 8 7 5 7 6 4 4 5 4 6 5 7 5 5 4 4 4 3 4 5 4 5 4 3 2 3 1 1 1 2 1 3 2 5 4 3 2 1 1 3 7 8 8 7 7
4 6 4 4 4 3 3 1 2 3 4 5 7 8 8 9 9 6 4 4 5 5 5 5 5 5 6 6 6 4 5 4 1 1 1 1 5 6 5 1 3 3 3 4 3 5 6 5 6 6 7 5 4 6 6 7 5 7 4 4 3 4 4 4 5 2 1 1 3 2 1 2 3 2 3 2 1 0 1 4 5 5 4 5 5
7 6 6 6 5 4 3 1 1 1 1 4 5 8 9 9 8 5 4 4 4 5 5 6 6 6 7 7 7 7 5 4 4 4 4 3 2 1 0 1 2 4 4 2 3 2 6 6 6 7 6 5 8 7 6 7 9 8 8 6 5 5 5 4 2 4 1 3 1 3 1 1 2 1 1 4 0 0 0 2 3 2 2 2 3
7 7 6 6 6 5 5 5 5 5 4 4 5 6 7 8 8 6 4 4 4 4 5 5 6 7 7 7 7 8 7 7 7 7 6 5 4 4 2 1 1 1 2 5 6 5 3 3 5 7 6 7 4 5 7 5 4 6 6 7 8 6 6 4 6 3 3 4 2 2 3 1 2 1 2 4 4 2 1 3 6 4 2 3 3
5 5 6 6 7 7 6 5 4 4 4 4 6 8 10 10 6 3 4 5 6 7 6 6 6 7 6 5 6 7 7 8 9 12 9 7 6 4 3 3 2 1 1 3 2 0 3 4 5 6 3 5 6 8 7 6 6 6 7 7 6 6 7 4 3 2 2 3 3 2 1 1 1 1 2 3 2 3 2 3 5 5 4 6 6
7 7 6 5 5 6 7 7 7 7 6 8 8 6 6 7 5 3 3 4 5 7 8 7 6 6 6 5 6 6 6 6 7 11 12 11 5 5 6 7 5 5 6 2 3 8 5 4 5 3 6 7 9 10 10 10 8 7 7 7 5 5 6 3 0 2 1 2 2 2 1 0 1 0 3 3 2 3 2 3 4 5 8 7 7
7 7 5 7 7 7 7 7 7 7 7 10 14 13 12 9 4 5 4 4 5 5 6 6 4 5 6 10 9 6 6 5 6 10 11 9 5 7 7 7 6 6 5 1 1 4 7 10 9 9 9 9 10 10 10 10 9 6 8 6 6 6 5 5 4 2 1 1 1 1 1 2 1 1 2 4 3 1 2 3 3 6 7 6 8
6 6 7 7 7 7 7 6 9 8 7 9 13 15 14 13 7 5 5 4 4 6 7 7 5 6 5 7 10 9 8 8 11 11 13 12 9 8 9 8 8 9 7 6 5 4 4 6 3 4 5 6 5 5 4 7 6 5 4 6 6 6 6 4 5 3 1 1 2 1 1 1 0 1 1 4 3 4 2 3 5 5 5 5 5
Wind_Direction
131 121 106 125 159 178 161 145 116 116 105 86 109 102 83 82 69 58 54 72 85 89 93 82 82 102 121 125 129 132 133 120 114 111 115 109 100 111 101 87 99 134 138 128 124 124 128 130 134 131 127 122 120 114 107 107 104 103 101 100 93 87 88 86 83 86 78 73 75 74 74 73 69 70 72 70 72 68 61 59 58 52 68 68 65
127 117 132 160 175 167 140 124 110 119 109 102 107 112 113 90 72 58 65 79 90 99 94 91 83 90 109 122 130 139 130 126 125 138 128 103 95 95 91 64 60 111 133 139 124 117 97 117 137 133 129 124 124 124 117 105 106 102 97 94 91 89 88 87 90 87 92 85 76 75 72 67 65 64 69 72 73 74 69 68 63 56 59 69 67
127 132 133 163 172 147 132 123 102 80 106 107 101 115 114 119 135 136 114 104 94 79 98 93 89 87 99 118 130 112 100 96 120 118 106 120 97 69 63 67 71 72 105 110 121 125 110 93 136 141 128 123 127 123 113 105 105 106 102 98 102 99 91 98 100 93 90 98 88 72 69 68 70 67 63 71 73 70 70 70 72 60 54 65 68
128 136 161 175 168 127 134 122 123 77 103 111 106 98 107 98 94 95 85 84 88 74 79 96 83 86 99 105 106 105 108 106 107 101 112 81 61 52 52 53 72 80 73 60 43 115 130 106 117 136 145 138 136 137 131 149 158 146 125 117 119 125 127 124 115 115 103 103 103 90 80 76 66 68 65 61 58 70 82 77 73 60 49 57 77
137 158 172 174 154 118 109 113 121 120 111 115 107 105 97 100 84 75 80 72 86 84 80 83 92 88 95 89 107 114 113 113 80 56 65 61 55 47 37 43 42 51 55 51 50 44 116 127 129 134 141 154 153 153 172 183 191 181 158 149 153 152 158 122 135 119 135 120 105 98 90 81 77 71 67 64 66 66 66 65 76 72 56 56 63
148 160 147 149 142 133 135 126 124 127 120 120 113 119 115 108 112 92 86 84 85 99 104 91 86 85 79 109 122 120 117 94 130 102 49 62 69 60 46 40 39 44 37 41 41 41 47 61 43 55 109 128 160 177 186 204 209 198 177 164 170 180 179 190 137 154 155 135 120 118 106 96 88 75 65 62 65 61 54 59 60 66 70 67 67
162 155 160 151 156 159 164 143 142 138 133 111 116 110 124 122 114 108 88 90 94 75 92 104 100 93 113 142 139 116 94 118 117 75 68 62 59 55 53 50 47 51 40 41 37 50 73 67 63 53 56 52 59 28 356 18 39 26 360 309 211 199 204 204 193 183 177 152 145 146 146 129 113 104 90 83 79 70 66 64 64 65 78 71 67
160 153 152 170 172 174 157 149 148 135 107 107 115 127 128 108 100 133 118 100 103 84 74 89 88 96 122 121 101 103 122 104 100 86 90 78 68 65 59 52 47 59 59 42 37 46 57 52 51 53 59 66 7 37 18 6 19 30 340 50 285 239 250 227 213 197 185 184 172 171 169 163 158 153 163 157 202 132 100 96 71 70 62 78 81
152 155 160 181 174 139 141 140 145 132 119 106 105 137 136 114 89 86 118 125 108 99 90 96 99 99 121 107 104 123 114 109 102 102 94 89 77 68 63 73 51 74 60 56 49 46 50 53 54 56 55 66 70 45 29 30 39 5 331 351 298 280 245 245 250 222 209 197 189 185 175 179 181 182 176 187 186 195 147 120 135 114 85 45 81
151 161 172 181 144 139 139 152 144 124 119 111 105 76 82 106 104 59 83 110 112 112 110 103 101 113 113 120 134 106 116 113 105 122 89 103 91 86 88 56 56 62 62 54 57 53 50 52 62 59 59 57 55 51 49 52 51 41 31 315 305 311 268 245 237 243 225 215 201 195 184 189 193 197 194 195 197 196 180 183 183 151 130 144 83
154 163 159 155 143 148 153 162 135 128 128 122 118 104 91 80 109 91 66 72 104 114 119 113 103 111 104 75 72 68 78 75 78 77 43 26 97 31 64 40 45 45 48 49 46 63 64 58 58 59 51 54 54 55 56 43 34 40 48 245 255 262 264 267 275 245 252 282 295 325 328 223 241 210 219 201 202 204 200 198 193 189 180 174 180
162 162 158 153 154 162 155 150 145 138 139 134 135 136 132 113 107 111 104 82 71 102 115 109 82 62 46 32 28 27 34 44 49 57 67 58 41 46 42 49 50 48 58 59 43 57 66 78 71 66 63 52 51 52 51 45 36 32 35 29 17 356 323 243 266 289 346 301 275 228 240 208 230 233 217 205 206 211 210 209 209 209 197 192 189
166 152 153 146 142 150 151 154 149 151 157 162 133 127 125 125 117 108 119 111 84 100 125 122 114 92 71 52 37 22 30 39 52 86 76 48 64 72 56 61 56 57 59 73 92 83 90 79 80 75 64 58 40 37 38 36 31 29 31 25 15 16 14 340 354 11 14 332 167 118 148 155 213 229 230 229 222 217 214 210 217 219 218 197 201
147 141 138 139 147 160 166 163 159 154 141 124 125 127 128 125 127 94 41 116 120 165 164 106 62 126 123 86 35 14 9 28 40 39 77 83 79 73 55 67 67 69 62 62 64 75 75 74 65 50 61 61 44 30 22 20 22 29 32 24 21 24 38 29 44 65 214 239 33 161 105 115 161 209 210 261 259 240 228 221 214 217 220 219 206
150 148 145 156 157 161 176 174 164 150 132 140 134 137 148 149 146 136 117 65 105 74 27 79 128 107 108 99 96 49 337 5 26 34 21 59 75 81 88 79 80 68 70 67 61 65 82 82 71 57 47 52 47 37 28 20 27 29 34 34 30 34 33 37 46 56 107 130 124 97 75 5 340 66 146 243 289 289 285 245 221 222 223 222 216
151 154 152 158 159 168 166 176 168 154 145 146 145 142 148 149 132 140 136 123 114 55 18 70 133 137 104 102 175 124 79 17 12 3 23 58 59 74 82 84 78 68 65 75 75 82 81 66 61 58 54 54 52 43 37 29 24 27 27 33 37 35 44 46 51 53 54 64 71 79 70 56 62 56 70 178 254 292 314 311 279 248 233 227 234
151 157 157 161 165 165 165 170 157 149 139 143 155 157 163 155 148 143 155 143 136 120 11 50 80 55 138 115 73 83 204 203 110 10 8 32 35 71 89 86 76 77 81 82 76 72 75 70 65 58 52 49 46 45 43 32 29 25 21 28 33 39 48 59 58 60 62 67 72 78 80 77 75 73 65 39 24 7 329 306 313 338 324 279 249
152 153 153 161 169 173 162 155 159 153 151 157 152 135 148 149 167 151 126 102 138 124 96 20 72 78 100 164 167 168 165 191 84 146 1 52 43 60 76 75 78 80 79 89 91 83 72 80 63 61 55 50 46 49 43 33 37 28 29 21 34 39 31 61 67 72 76 73 71 69 67 64 58 54 53 53 55 57 56 53 46 27 360 351 359
150 141 141 158 167 180 166 159 149 145 143 141 160 171 166 158 142 138 154 127 123 135 150 164 64 39 54 57 85 95 144 136 150 113 76 336 27 45 46 60 71 77 88 92 99 90 64 74 67 57 49 43 46 51 49 39 38 43 42 35 36 34 45 43 62 73 73 72 72 73 72 70 62 58 56 53 52 55 58 60 61 61 59 59 37
129 136 151 153 167 174 155 147 139 132 137 152 163 163 142 125 153 154 145 158 160 151 161 173 152 187 30 77 77 79 100 85 111 148 140 134 87 58 55 52 67 42 53 85 83 95 95 64 70 64 50 43 51 52 50 49 44 36 36 31 34 40 48 50 44 51 71 73 73 74 74 72 69 65 59 55 52 51 52 53 53 54 54 53 56
107 157 156 163 171 175 166 157 146 145 133 130 138 155 155 149 147 147 161 159 166 154 145 175 151 167 120 64 82 82 78 75 99 88 134 123 122 136 107 33 70 39 25 34 53 62 73 84 82 70 59 48 44 54 54 56 50 43 44 37 34 38 47 47 45 45 47 66 68 67 66 64 63 59 56 55 52 49 47 45 46 46 48 52 52
86 133 140 159 173 173 179 176 161 158 144 137 140 148 153 159 171 167 152 143 131 153 169 170 171 159 150 150 118 105 91 78 68 106 65 69 151 161 152 140 121 334 25 25 32 34 41 46 59 53 50 42 29 49 57 59 56 49 40 38 38 41 44 47 48 47 49 54 64 63 61 58 56 56 54 52 50 48 46 43 40 39 40 42 45
112 58 97 114 131 162 184 185 159 158 149 146 154 165 174 171 160 137 156 157 151 138 125 151 152 150 144 150 154 159 165 164 172 162 142 127 97 100 84 75 136 107 2 24 38 41 45 34 38 40 53 42 27 43 55 53 55 54 52 45 41 48 47 46 44 45 50 55 60 68 67 64 61 57 56 55 53 51 48 46 42 38 36 36 37
76 64 47 51 89 92 121 148 159 145 158 167 164 164 164 152 149 159 165 160 136 142 150 151 160 164 165 159 166 152 126 143 164 152 142 153 139 133 130 119 58 50 106 55 43 50 32 33 18 21 7 37 31 38 46 45 44 59 48 46 44 44 47 50 45 41 41 44 47 57 68 68 65 61 57 54 54 52 50 48 43 38 36 35 34
94 107 168 168 126 108 115 138 144 149 147 149 159 148 146 152 158 164 159 170 175 160 164 177 168 168 182 160 145 134 137 142 134 131 105 126 127 121 90 89 128 109 129 81 54 8 66 44 359 360 355 340 7 27 30 57 48 55 53 34 43 41 45 46 46 45 40 42 44 48 62 68 70 69 65 62 58 57 53 47 42 37 36 34 31
144 144 182 118 73 102 120 112 122 143 152 147 137 139 139 145 151 159 180 180 155 164 159 160 164 159 138 140 151 142 148 149 140 127 134 123 134 132 126 48 82 129 21 46 30 79 339 35 65 12 341 310 292 283 334 42 43 58 65 53 36 40 41 42 44 32 40 39 42 49 53 60 66 69 67 65 64 61 56 51 43 40 37 34 31
138 160 128 102 92 84 98 107 110 118 115 109 108 110 113 112 114 126 109 120 131 129 141 154 156 150 154 157 154 145 144 148 142 154 152 156 148 150 130 118 61 61 77 20 11 81 213 298 247 208 275 284 273 267 274 311 43 73 67 51 30 33 30 38 40 49 44 44 42 42 44 55 61 63 65 63 59 55 61 58 52 46 37 33 28
122 122 136 109 104 84 75 99 106 97 90 100 104 109 117 115 110 114 115 120 130 133 156 154 160 165 163 143 142 170 164 162 164 157 162 159 149 148 137 138 139 155 41 99 343 302 157 133 296 230 218 240 264 271 276 280 324 41 83 53 18 359 8 16 32 38 46 48 46 46 46 45 55 67 71 69 59 52 57 56 57 53 51 36 32
129 121 111 73 90 98 88 91 96 110 101 91 95 95 90 92 102 98 90 76 107 135 144 141 154 153 149 169 179 166 176 171 160 143 138 145 156 151 155 155 155 133 144 169 230 186 246 178 164 249 196 206 237 260 270 264 259 203 100 78 341 329 336 4 8 20 30 31 37 44 46 41 46 50 58 52 50 54 50 48 63 62 59 38 50
120 115 104 98 85 86 102 84 79 90 104 102 105 104 99 87 95 88 103 105 96 72 71 116 128 127 120 101 124 146 153 162 170 155 154 154 149 159 147 135 149 151 161 163 217 205 194 231 186 206 188 210 201 236 223 253 243 188 154 138 288 282 291 298 355 358 353 355 2 10 16 20 17 19 34 49 61 59 55 46 45 57 50 53 51
115 113 102 95 92 85 106 111 98 101 97 111 110 100 106 102 89 96 84 107 103 91 58 92 93 97 100 96 81 93 126 146 148 153 153 151 157 141 136 137 189 154 154 137 136 245 167 193 238 223 195 200 196 198 220 236 243 204 146 139 272 275 271 275 271 300 316 314 321 333 335 339 353 355 355 352 337 324 316 320 338 343 3 32 51
110 115 116 114 110 106 96 112 105 98 102 96 111 115 98 100 111 99 96 110 100 103 85 59 81 108 126 106 101 118 123 128 137 150 159 157 147 148 152 148 126 121 135 142 150 195 213 195 214 240 205 171 178 197 233 239 215 200 148 181 231 260 276 280 281 260 267 296 303 309 322 338 355 343 327 313 305 301 290 288 288 289 287 286 305
129 119 119 116 108 110 112 116 126 126 117 101 90 107 103 96 79 106 95 100 105 91 105 89 85 111 98 100 92 89 117 127 139 137 142 144 136 144 143 139 142 153 145 125 130 140 192 217 206 218 190 132 189 206 230 234 208 152 170 196 206 214 239 252 269 268 243 255 285 298 315 334 343 333 317 303 300 300 296 291 287 278 262 247 246
120 128 110 94 94 103 110 108 109 115 114 116 125 117 114 100 83 84 106 102 101 97 96 101 77 81 98 104 99 91 104 125 139 146 151 145 152 150 170 161 165 177 184 111 141 137 191 239 250 305 129 159 215 173 204 225 195 158 188 210 216 210 231 242 262 272 254 235 261 290 311 330 324 313 309 314 313 303 292 288 283 281 273 256 237
74 109 133 106 96 93 91 102 110 112 118 116 110 120 121 125 114 81 101 121 127 125 115 120 115 109 93 102 114 115 113 102 109 128 132 143 156 167 178 175 169 178 192 160 125 145 171 217 208 191 185 171 199 221 214 211 172 182 185 213 219 221 228 208 246 275 320 295 263 294 313 303 300 298 305 312 319 328 325 306 295 290 286 276 251
123 69 63 95 100 92 94 94 108 125 107 102 99 121 142 137 126 127 116 115 130 141 139 138 132 120 130 115 129 120 116 112 126 123 134 140 152 160 167 181 170 174 176 162 156 141 174 167 234 194 201 172 239 261 84 159 175 208 223 216 180 226 230 195 230 321 321 283 217 246 276 290 294 299 308 322 331 349 359 357 341 321 305 288 266
109 109 92 75 95 108 123 141 146 169 163 153 132 126 144 143 141 142 140 128 140 151 154 149 147 138 142 141 160 141 127 122 144 146 159 155 160 151 162 169 173 170 153 157 151 130 145 181 202 236 182 212 211 173 180 157 195 185 34 164 222 235 260 52 163 229 226 108 162 206 273 300 300 320 336 358 50 50 41 35 28 18 8 349 315
112 151 155 156 155 187 151 182 188 193 174 178 171 176 175 156 138 140 145 152 166 170 175 170 157 163 153 158 166 157 141 139 167 165 155 149 139 145 150 162 153 136 141 133 127 143 165 184 173 199 257 196 205 175 203 168 149 135 65 44 59 37 90 68 25 43 88 115 86 55 352 319 310 6 54 51 47 45 41 39 36 32 26 18 8
143 167 187 189 207 194 189 170 221 196 180 187 177 171 169 167 164 156 162 174 190 203 201 192 184 188 179 165 164 166 150 150 151 166 156 147 153 166 168 160 153 145 149 164 154 157 172 175 207 204 203 250 174 177 244 167 125 147 154 123 67 16 48 85 85 25 44 37 23 153 241 237 43 53 53 54 49 45 45 43 42 42 41 37 29
157 174 186 200 208 182 207 194 219 229 157 181 195 186 171 171 167 186 187 192 202 227 229 226 207 203 204 195 176 176 172 177 168 172 157 158 154 175 191 148 149 151 166 166 162 164 172 188 193 205 207 188 224 21 84 104 108 38 159 141 159 143 89 35 100 118 344 25 336 349 319 27 31 42 46 51 46 43 45 48 46 48 46 44 42
221 170 199 186 181 196 216 219 230 221 175 206 202 181 163 161 177 184 202 201 201 213 234 251 264 266 259 241 218 190 191 195 194 176 180 163 154 169 193 161 159 163 167 171 176 170 184 185 210 182 165 186 214 162 151 146 183 192 181 123 131 130 144 117 100 49 97 172 355 33 7 12 37 39 34 46 33 38 37 45 46 49 49 50 48
263 159 158 148 144 207 210 211 215 227 229 222 224 205 179 170 182 185 190 204 207 213 220 248 275 282 273 277 276 248 215 206 205 202 196 187 183 166 171 168 166 162 170 175 178 185 173 186 203 182 195 217 206 198 187 213 153 104 119 139 139 162 98 100 353 284 331 98 119 60 354 8 91 64 43 58 23 37 37 43 50 61 53 51 49
34 52 119 133 148 167 231 217 197 214 230 231 229 216 210 186 171 176 180 205 200 200 208 214 234 246 261 268 272 278 262 248 239 231 218 213 208 191 168 173 171 165 165 177 196 177 180 195 184 182 194 209 224 197 194 159 148 163 165 151 133 136 151 146 188 302 307 72 86 82 14 350 41 76 34 50 35 33 36 51 65 61 56 51 47
15 48 62 67 75 101 171 199 236 240 235 245 249 231 232 223 205 196 196 194 197 204 205 214 229 234 243 251 257 255 250 233 222 210 229 237 241 236 195 186 191 194 180 171 176 194 200 183 188 207 180 206 199 178 175 144 148 103 119 134 137 146 133 134 168 152 278 17 116 96 30 336 19 68 45 20 36 20 37 48 58 61 56 50 47
32 35 13 30 44 70 118 156 245 262 269 297 305 287 258 241 238 237 222 219 208 214 209 212 214 220 224 232 247 247 241 237 205 148 173 348 5 354 336 206 160 162 218 269 252 197 173 184 193 214 208 185 167 210 195 174 151 139 146 111 130 135 144 142 189 176 296 3 73 61 77 327 22 44 36 315 78 300 24 22 42 57 57 57 49
37 29 17 16 4 7 6 58 175 209 249 277 266 265 267 264 256 250 270 250 236 230 224 219 221 219 214 212 222 235 230 207 188 170 152 129 134 133 70 12 353 357 2 358 336 273 198 193 189 214 222 175 195 194 189 156 149 160 157 161 147 136 145 153 171 130 6 359 153 127 43 305 2 47 360 292 93 359 334 357 350 1 47 59 42
29 30 20 14 12 7 357 345 344 331 301 287 266 256 253 255 252 209 244 270 284 272 251 233 227 229 226 219 212 218 214 208 207 183 158 157 155 161 139 162 121 47 4 3 1 357 335 280 228 223 213 204 196 161 154 180 157 155 155 160 168 153 130 97 65 40 38 32 70 98 212 255 324 28 283 286 325 333 286 282 279 286 354 11 359
27 28 22 23 13 1 356 358 356 326 305 321 321 314 310 300 291 229 215 223 236 248 257 255 246 237 236 228 228 226 216 215 213 184 169 165 174 155 182 206 170 193 126 167 161 77 277 280 285 274 230 174 170 154 149 137 109 109 90 87 88 94 107 98 118 337 42 324 54 98 101 265 307 50 285 291 329 305 283 273 278 288 332 7 342
25 24 19 12 2 4 360 1 359 338 332 331 333 307 283 291 303 268 246 235 238 242 244 243 239 238 229 220 221 229 225 224 202 181 177 162 167 187 210 219 209 196 224 264 75 72 44 24 13 39 105 115 110 107 116 130 133 134 114 106 117 127 117 113 109 58 103 318 338 77 124 218 282 228 290 281 305 279 298 297 305 309 355 339 329
16 6 3 8 10 13 11 5 356 347 335 338 345 345 339 325 292 281 266 238 243 241 252 257 254 247 232 219 209 208 211 224 221 204 191 172 187 193 190 202 210 220 238 214 72 60 95 82 68 72 73 78 86 92 107 120 134 139 131 151 175 125 127 139 172 176 225 333 282 120 106 215 292 238 266 295 334 283 283 283 307 337 336 324 322
11 1 9 16 10 14 12 4 359 6 349 346 353 356 359 360 346 311 306 287 275 272 267 263 242 233 252 242 224 213 204 202 208 220 212 197 202 193 194 191 201 215 207 169 157 120 99 101 85 88 62 61 75 88 93 95 87 64 87 124 133 129 143 167 137 111 88 271 272 143 183 269 56 306 89 357 356 287 288 280 314 313 316 318 315